Location: Mount Tamalpais State Park
(37.9108°N, 122.6128°W)
Time: 11:18:16
(UTC-07:00)

Cosmos 1814 Rocket - Visible Passes

Search period start: 01 October 2014 00:00
Search period end: 11 October 2014 00:00
Orbit: 746 x 789 km, 74.1° (Epoch: 30 September)

Date Brightness Start Highest point End Pass type
(mag) Time Alt. Az. Time Alt. Az. Time Alt. Az.
02 Oct 7.2 19:59:02 10° WNW 20:01:35 14° W 20:04:07 10° SW visible
03 Oct 6.6 19:20:24 10° NW 19:24:34 25° W 19:28:42 10° SSW visible
04 Oct 7.6 06:34:06 10° ESE 06:36:29 13° E 06:38:52 10° ENE visible
06 Oct 7.4 19:11:37 10° WNW 19:14:22 15° W 19:17:07 10° SW visible
07 Oct 6.9 06:22:14 10° SSE 06:26:17 22° E 06:30:20 10° NE visible
08 Oct 7.4 05:47:13 10° ESE 05:49:18 12° E 05:51:22 10° ENE visible
10 Oct 5.7 06:11:19 10° SSE 06:16:10 37° E 06:21:01 10° NE visible
